Notices

What's New in latest Release from April 7th, 2021:

- Updated Glossary, including Speed of Maximum Gust, and Total Hourly Precipitation

- Updated national and regional climate services offices contacts and prices information

- Addition of station inventory lists for 1981-2010, 1971-2000, and 1961-1990 Normals.

If you haven't already, please take our survey and provide feedback about our website: https://eccc.sondage-survey.ca/f/LanguageSelection.aspx?s=442ca660-fcf1-47c0-95a9-59707d6fd709

Hourly Data Report for May 11, 2003

TORONTO CITY
ONTARIO

43°40'00.000" N
79°24'00.000" W
112.50 m
6158355
71508
XTO

Download Data

Hourly Data (May 2003)
Hourly Data Report for May 11, 2003
TIME
LST
Temp Definition
°C
Dew Point Definition
°C
Rel Hum Definition
%
Precip. Amount Definition
mm

Wind Dir Definition
10's deg

Wind Spd Definition
km/h
Visibility Definition
km
Stn Press Definition
kPa
Hmdx Definition


Wind Chill Definition


Weather Definition


00:00 15.0 2.8 44   LegendMM LegendMM LegendMM 99.22     LegendNANA
01:00 14.9 3.4 46   LegendMM LegendMM LegendMM 99.13     LegendNANA
02:00 14.0 3.5 49   LegendMM LegendMM LegendMM 99.09     LegendNANA
03:00 13.2 3.8 53   LegendMM LegendMM LegendMM 98.98     LegendNANA
04:00 12.7 5.6 62   LegendMM LegendMM LegendMM 98.88     LegendNANA
05:00 11.9 4.9 62   LegendMM LegendMM LegendMM 98.87     LegendNANA
06:00 10.5 5.3 70   LegendMM LegendMM LegendMM 98.78     LegendNANA
07:00 10.8 6.0 72   LegendMM LegendMM LegendMM 98.62     LegendNANA
08:00 9.3 8.0 92   LegendMM LegendMM LegendMM 98.59     LegendNANA
09:00 10.4 9.9 97   LegendMM LegendMM LegendMM 98.44     LegendNANA
10:00 11.2 10.8 97   LegendMM LegendMM LegendMM 98.23     LegendNANA
11:00 13.8 13.7 99   LegendMM LegendMM LegendMM 98.05     LegendNANA
12:00 14.3 14.0 98   LegendMM LegendMM LegendMM 97.85     LegendNANA
13:00 14.8 14.4 97   LegendMM LegendMM LegendMM 97.90     LegendNANA
14:00 18.3 15.7 85   LegendMM LegendMM LegendMM 97.83     LegendNANA
15:00 18.4 13.0 71   LegendMM LegendMM LegendMM 97.91     LegendNANA
16:00 15.5 8.9 65   LegendMM LegendMM LegendMM 98.09     LegendNANA
17:00 17.9 7.7 51   LegendMM LegendMM LegendMM 98.13     LegendNANA
18:00 16.6 6.6 52   LegendMM LegendMM LegendMM 98.17     LegendNANA
19:00 15.0 6.5 57   LegendMM LegendMM LegendMM 98.24     LegendNANA
20:00 14.1 6.2 59   LegendMM LegendMM LegendMM 98.28     LegendNANA
21:00 13.0 6.5 65   LegendMM LegendMM LegendMM 98.28     LegendNANA
22:00 12.2 7.2 71   LegendMM LegendMM LegendMM 98.19     LegendNANA
23:00 10.8 7.2 78   LegendMM LegendMM LegendMM 98.08     LegendNANA

Notes on Data Quality.

Legend

  • E = Estimated
  • M = Missing
  • NA = Not Available*
  • [empty] = Indicates an unobserved value
Date modified: